STARLINK-36728, 67927

Orbit data source: Space-Track

STARLINK-36728, 67927 is a payload satellite owned by SpaceX/Seattle (US) in LEO that was launched on Sun, 22 Feb 2026 UTC via an FALCON 9 launch vehicle from the Air Force Eastern Test Range (AFETR). Payload-class satellites include a variety of spacecraft equipped with specific instruments for various scientific and technological missions. These include communications satellites like Starlink; space stations such as the ISS; scientific satellites like the Hubble; Earth observation satellites from companies like Planet Labs, Umbra, and HawkEye 360; GPS; miniature CubeSats for education and research; and military/defense satellites.

Loading next visibility...
Identifier
67927, 2026-036Z
Orbit
LEO
Country
Flag of USUS
Related business
Manufacturer
SpaceX/Seattle
Mission
Operational spacecraft
Bus & Motor
STARLINK V2MO, Unknown motor
Mass
575 kg wet, ~530 kg dry
Launch date (UTC)
2026-02-22 (2 months ago)
Launch vehicle
FALCON 9
Launch site
Air Force Eastern Test Range (AFETR)
Object type
Payload
Rocket body
Debris
Shape & HBR
Unknown shape, 17.7 m
Radar Cross Section
RCS unknown

Expand to show TLE details & history
Last TLE update: 8 hours ago

TLE from 8 hours ago
0 STARLINK-36728
1 67927U 26036Z   26104.19664950 -.00010427  00000-0 -37002-3 0  9992
2 67927  42.9986  44.6154 0001122 274.3852  85.6872 15.27572029  9153
Epoch: 2026-04-14T04:43Z
TLE epoch observation values (Epoch: 2026-04-14T04:43:10.516Z)
Latitude
0.00001°
Longitude
131.44523°
Altitude
482.79 km
Speed
7.626 km/s
True Right ascension
02h 58m 27s
True Declination
0° 00' 00"
Sunlit
Object was in daylight at epoch
Visualization orbit readout
Latitude
Unknown
Longitude
Unknown
Altitude
Unknown
Speed
Unknown
Apparent Right ascension
Unknown
Apparent Declination
Unknown
Sunlit
N/A
Visualization observer readout
Local Sidereal Time
19:21:36
Azimuth
Unknown
Elevation
Unknown
Doppler factor
Unknown
Orbital elements
Apogee altitude
485.788 km
Perigee altitude
484.248 km
Semi-major axis
6,863.155 km
Eccentricity
0.00011
Inclination
42.9986°
RAAN
44.6154°
Arg. of periapsis
274.3852°
True anomaly
85.70002°
Mean anomaly
85.6872°
Eccentric anomaly
85.69361°
Mean motion
3.81731 °/min
Orbital period
94.31 mins
BSTAR
-0.00037002
Loading maneuver chart data...
Computing Atmospheric mass density...
Loading historical data...
Loading historical data...
Loading historical data...
Loading historical data...
Loading historical data...
Loading historical data...
Loading historical data...

Documentation

Showing up to 5 results
|